This is the latest recevied weather packets stored in our database for station/object IW1QLH-13. If no packets are shown the sender has not sent any weather packets the latest 10 day(s).
| Time | Temp. | Humidity | Pressure | Rain* | Wind** | Luminosity | Snow |
|---|---|---|---|---|---|---|---|
| 1788003569 | 30° C | 80% | 1006.9 hPa | - | - | 972 W/m² | - |
| 1788002958 | 28.89° C | 77% | 1006.8 hPa | - | - | 972 W/m² | - |
| 1788002345 | 30.56° C | 73% | 1006.8 hPa | - | - | 972 W/m² | - |
| 1788001733 | 30° C | 81% | 1006.9 hPa | - | - | 958 W/m² | - |
| 1788001121 | 30° C | 77% | 1006.9 hPa | - | - | 929 W/m² | - |
| 1788000510 | 30° C | 70% | 1007.1 hPa | - | - | 900 W/m² | - |
| 1787999898 | 28.89° C | 66% | 1007 hPa | - | - | 886 W/m² | - |
| 1787999288 | 30° C | 64% | 1007 hPa | - | - | 872 W/m² | - |
| 1787998676 | 30° C | 59% | 1007 hPa | - | - | 858 W/m² | - |
| 1787998065 | 28.89° C | 67% | 1007.1 hPa | - | - | 843 W/m² | - |
| 1787997453 | 28.89° C | 62% | 1007 hPa | - | - | 800 W/m² | - |
| 1787996842 | 30° C | 64% | 1006.9 hPa | - | - | 786 W/m² | - |
| 1787996231 | 30° C | 62% | 1007 hPa | - | - | 729 W/m² | - |
| 1787995620 | 30° C | 64% | 1006.8 hPa | - | - | 715 W/m² | - |
| 1787995008 | 30.56° C | 62% | 1006.8 hPa | - | - | 672 W/m² | - |
| 1787994397 | 28.89° C | 72% | 1006.9 hPa | - | - | 643 W/m² | - |
| 1787993785 | 30° C | 69% | 1006.7 hPa | - | - | 614 W/m² | - |
| 1787993172 | 30° C | 62% | 1006.7 hPa | - | - | 572 W/m² | - |
| 1787992560 | 30° C | 58% | 1006.6 hPa | - | - | 543 W/m² | - |
| 1787991949 | 30.56° C | 52% | 1006.4 hPa | - | - | 514 W/m² | - |
| 1787991338 | 30.56° C | 55% | 1006.3 hPa | - | - | 471 W/m² | - |
| 1787990727 | 27.78° C | 57% | 1006.3 hPa | - | - | 414 W/m² | - |
| 1787990111 | 30° C | 59% | 1006.2 hPa | - | - | 371 W/m² | - |
| 1787989500 | 30° C | 77% | 1006.1 hPa | - | - | 343 W/m² | - |
| 1787988888 | 27.78° C | 85% | 1006 hPa | - | - | 300 W/m² | - |
* Rain since midnight (hover to see other rain measurements)
** Current wind speed in m/s (hover to see current wind gust speed)